User: anonymous   Login
Location: Radomski Observatory
(40.2854°N, 79.5145°W)
Time: 18:58:36
(UTC-04:00)
Language:

Cosmos 1072 Rocket - Orbit

View from above orbital plane
View from above orbital plane
View from above satellite
View from above satellite

Ground track
Ground track

The orbit data is extracted from the following two-line orbital elements,

1 11239U 79003B   16182.53383741  .00000102  00000-0  89773-4 0  9998
2 11239  82.9378 349.5771 0039455 296.0810 121.5151 13.75797522879506
Epoch (UTC): 30 June 2016 12:48:43
Eccentricity: 0.0039455
inclination: 82.9378°
perigee height: 950 km
apogee height: 1008 km
right ascension of ascending node: 349.5771°
argument of perigee: 296.0810°
revolutions per day: 13.75797522
mean anomaly at epoch: 121.5151°
orbit number at epoch: 87950

The dashed part of the orbit path shows where the satellite is in the earth's shadow,  

DLR